Location: Batang Balui
(2.7000°N, 113.7833°E)
Time: 07:44:33
(UTC+00:00)

Hubble Space Telescope - Pass Details

Date: 03 December 2022
Orbit: 529 x 532 km, 28.5° (Epoch: 29 January)

Event Time Altitude Azimuth Distance (km) Brightness Sun altitude
Exits shadow 20:19:29 24° 60° (ENE) 1,099 2.6 -27.6°
Drops below altitude 10° 20:21:13 10° 60° (ENE) 1,759 3.8 -27.2°
Sets 20:23:27 0° 60° (ENE) 2,645 4.8 -26.7°
